Regional Weather Roundup
Issued by NWS

Home | Current Version | Previous Version | Graphics & Text | Print | Product List | Glossary On
Versions: 1 2 3 4 5 6 7 8 9 10 11 12 13 14 15 16 17 18 19 20 21 22 23 24 25 26 27 28 29 30 31 32 33 34 35 36 37 38 39 40 41 42 43 44 45 46 47 48 49 50
000
ASUS43 KIND 190509
RWRIN

WEATHER ROUNDUP FOR INDIANA
NATIONAL WEATHER SERVICE INDIANAPOLIS IN
100 AM EDT SAT APR 19 2014

NOTE: "FAIR" INDICATES FEW OR NO CLOUDS BELOW 12,000 FEET WITH NO
SIGNIFICANT WEATHER AND/OR OBSTRUCTIONS TO VISIBILITY.

* - STATION DOES NOT REPORT WEATHER SUCH AS PRECIPITATION OR FOG.

+ - STATION NOT QUALITY CONTROLLED BY THE NATIONAL WEATHER SERVICE.
    USE DATA WITH CAUTION...ESPECIALLY DEWPOINT AND RELATIVE
    HUMIDITY OBSERVATIONS.

INZ001>003-010>013-019-020-190600-
NORTHWEST INDIANA

CITY           SKY/WX    TMP DP  RH WIND       PRES   REMARKS
GARY /AIRPORT/ CLEAR     39  29  68 N8        30.37S
LA PORTE +     CLEAR     35  24  66 N8        30.35S WCI  28
MICHIGAN CITY+ CLEAR     34  27  75 CALM      30.36S
MONTICELLO +   CLEAR     37  31  79 N5        30.35R
RENSSELAER +   CLEAR     36  28  75 CALM      30.35F
VALPARAISO     CLEAR     34  23  64 N5        30.35S WCI  30

$$

LMZ046-743>745-190600-
SOUTHERN LAKE MICHIGAN

STATION/POSITION TIME  TEMP WIND        PRES
                       AIR  DIR/SP/G
                 (UTC) (F)  (DEG/KT/KT) (MB)
MICHIGAN CITY    0500   38   20/ 11/ 13   N/A

$$

INZ004-005-014>016-021>024-190600-
NORTH CENTRAL INDIANA

CITY           SKY/WX    TMP DP  RH WIND       PRES   REMARKS
GOSHEN         CLEAR     37  27  67 N7        30.33R
LOGANSPORT +   CLEAR     39  32  75 N9        30.34R
PERU/GRISSOM   CLEAR     43  32  64 N9        30.31S
ROCHESTER +    CLEAR     41  28  60 N3        30.34R
SOUTH BEND     CLEAR     35  23  61 N6        30.35S WCI  30
WARSAW +       CLEAR     37  30  75 CALM      30.33R

$$

INZ006>009-017-018-025>027-190600-
NORTHEAST INDIANA

CITY           SKY/WX    TMP DP  RH WIND       PRES   REMARKS
ANGOLA *+      CLEAR     43  32  65 CALM      30.32R
AUBURN +       CLEAR     43  32  65 N3        30.33R
FORT WAYNE     CLEAR     41  34  76 N8        30.32R

$$

INZ028-029-035-036-043>045-051>053-190600-
WEST CENTRAL INDIANA

CITY           SKY/WX    TMP DP  RH WIND       PRES   REMARKS
GREENCASTLE +  CLEAR     46  36  66 N12       30.29S
LAFAYETTE      CLEAR     42  31  64 N8        30.33S
TERRE HAUTE    CLEAR     52  38  58 NE8       30.28R

$$

INZ030>032-037>040-046>048-054>057-064-065-190600-
CENTRAL INDIANA

CITY           SKY/WX    TMP DP  RH WIND       PRES   REMARKS
CP ATTERBURY + MOCLDY    54  37  54 N7        30.27R
FRANKFORT +    CLEAR     45  34  65 N10       30.32
GREENWOOD *+   PTCLDY    52  37  58 N9        30.28
INDIANAPOLIS   PTCLDY    50  36  58 N12       30.28R
-EAGLE CREEK   CLEAR     49  35  58 N9        30.28S
KOKOMO *+      CLEAR     43  30  61 N8        30.32S
MARION +       CLEAR     44  35  71 N6        30.31S
MT COMFORT *+  PTCLDY    46  39  76 N9        30.29S
SHELBYVILLE    PTCLDY    54  37  52 N10       30.27R
ZIONSVILLE +   CLEAR     45  36  71 N7        30.30F

$$

INZ033-034-041-042-049-050-058-059-190600-
EAST CENTRAL INDIANA

CITY           SKY/WX    TMP DP  RH WIND       PRES   REMARKS
MUNCIE         CLEAR     45  36  70 N7        30.29S

$$

INZ060-061-067>069-081>083-085>088-190600-
SOUTHWEST INDIANA

CITY           SKY/WX    TMP DP  RH WIND       PRES   REMARKS
EVANSVILLE     MOCLDY    61  42  49 N6        30.23R
HUNTINGBURG *+ MOCLDY    52  41  66 CALM      30.23S
WASHINGTON +   PTCLDY    54  44  70 N5        30.23S

$$

INZ062-063-066-070>080-084-089>092-190600-
SOUTH CENTRAL AND SOUTHEAST INDIANA

CITY           SKY/WX    TMP DP  RH WIND       PRES   REMARKS
BEDFORD +      MOCLDY    57  36  44 N7        30.25R
BLOOMINGTON    PTCLDY    53  38  56 N8        30.26R
NORTH VERNON + MOCLDY    57  41  54 N7        30.25R

$$




USA.gov is the U.S. government's official web portal to all federal, state and local government web resources and services.